Windom, MN

10:30 PM CDT on May 21, 2018 (GMT -0500)
Windom Municipal

Weather History for KMWM - January, 2014

Change the Weather History Date:

Tuesday, January 28, 2014

  Actual Average Record
Temperature  
Mean Temperature -6 °F -  
Max Temperature 3 °F 22 °F 48 °F (1989)
Min Temperature -14 °F 4 °F -21 °F (1966)
Degree Days  
Heating Degree Days 70    
Moisture  
Dew Point -13 °F    
Average Humidity 72    
Maximum Humidity 84    
Minimum Humidity 60    
Precipitation  
Precipitation 0.00 in - - ()
Sea Level Pressure  
Sea Level Pressure 30.24 in    
Wind  
Wind Speed 8 mph (WSW)    
Max Wind Speed 20 mph    
Max Gust Speed 24 mph    
Visibility 10 miles    
Events      
Averages and records for this station are not official NWS values.
T = Trace of Precipitation, MM = Missing Value Source: NWS Daily Summary

Daily Weather History Graph

Daily Weather History Graph

Search for Another Location

Airport or City:

Astronomy

Jan. 28, 2014 Rise Set
Actual Time 7:41 AM CST 5:25 PM CST
Civil Twilight 7:10 AM CST 5:56 PM CST
Nautical Twilight 6:36 AM CST 6:31 PM CST
Astronomical Twilight 6:02 AM CST 7:05 PM CST
Moon 5:25 AM CST (1/28) 3:15 PM CST (1/28)
Length of Visible Light 10h 45m
Length of Day
9h 43m
Waning Crescent, 7% of the Moon is Illuminated
Jan 28
Waning Crescent
Jan 30
New
Feb 6
First Quarter
Feb 14
Full
Feb 22
Last Quarter

Hourly Weather History & Observations

Time (CST) Temp. Windchill Dew Point Humidity Pressure Visibility Wind Dir Wind Speed Gust Speed Precip Events Conditions
12:13 AM -13.0 °F - -18.4 °F 77% 30.34 in 10.0 mi Calm Calm - N/A   Clear
12:33 AM -13.0 °F - -18.4 °F 77% 30.34 in 10.0 mi Calm Calm - N/A   Clear
12:52 AM -11.2 °F -29.0 °F -18.4 °F 70% 30.34 in 10.0 mi WSW 9.2 mph - N/A   Clear
1:13 AM -13.0 °F -27.0 °F -18.4 °F 77% 30.33 in 10.0 mi West 5.8 mph - N/A   Clear
1:33 AM -14.8 °F -30.8 °F -20.2 °F 77% 30.33 in 10.0 mi West 6.9 mph - N/A   Clear
1:52 AM -14.8 °F -32.2 °F -18.4 °F 84% 30.33 in 10.0 mi WSW 8.1 mph - N/A   Clear
2:13 AM -14.8 °F -27.2 °F -18.4 °F 84% 30.33 in 10.0 mi WSW 4.6 mph - N/A   Clear
2:32 AM -14.8 °F -27.2 °F -18.4 °F 84% 30.33 in 10.0 mi WSW 4.6 mph - N/A   Clear
2:53 AM -14.8 °F -29.1 °F -18.4 °F 84% 30.33 in 10.0 mi WSW 5.8 mph - N/A   Clear
3:13 AM -14.8 °F - -18.4 °F 84% 30.33 in 10.0 mi Calm Calm - N/A   Clear
3:32 AM -14.8 °F -24.8 °F -20.2 °F 77% 30.33 in 10.0 mi WSW 3.5 mph - N/A   Clear
3:53 AM -14.8 °F - -20.2 °F 77% 30.33 in 10.0 mi Calm Calm - N/A   Clear
4:12 AM -14.8 °F - -20.2 °F 77% 30.33 in 10.0 mi Calm Calm - N/A   Clear
4:32 AM -14.8 °F - -18.4 °F 84% 30.33 in 10.0 mi Calm Calm - N/A   Clear
4:53 AM -14.8 °F -34.6 °F -18.4 °F 84% 30.33 in 10.0 mi WSW 10.4 mph - N/A   Clear
5:12 AM -14.8 °F -30.8 °F -18.4 °F 84% 30.33 in 10.0 mi WSW 6.9 mph - N/A   Clear
5:32 AM -14.8 °F -33.5 °F -20.2 °F 77% 30.32 in 10.0 mi WSW 9.2 mph - N/A   Clear
5:53 AM -13.0 °F -31.3 °F -18.4 °F 77% 30.32 in 10.0 mi WSW 9.2 mph - N/A   Clear
6:12 AM -14.8 °F -33.5 °F -18.4 °F 84% 30.31 in 10.0 mi WSW 9.2 mph - N/A   Clear
6:32 AM -14.8 °F -33.5 °F -18.4 °F 84% 30.31 in 10.0 mi West 9.2 mph - N/A   Clear
6:53 AM -13.0 °F -33.4 °F -18.4 °F 77% 30.30 in 10.0 mi WSW 11.5 mph - N/A   Clear
7:12 AM -13.0 °F -33.4 °F -18.4 °F 77% 30.30 in 10.0 mi WSW 11.5 mph - N/A   Clear
7:32 AM -13.0 °F -32.4 °F -18.4 °F 77% 30.31 in 10.0 mi WSW 10.4 mph - N/A   Clear
7:53 AM -13.0 °F -28.6 °F -18.4 °F 77% 30.30 in 10.0 mi WSW 6.9 mph - N/A   Clear
8:12 AM -13.0 °F -31.3 °F -18.4 °F 77% 30.30 in 10.0 mi West 9.2 mph - N/A   Clear
8:33 AM -13.0 °F -31.3 °F -18.4 °F 77% 30.30 in 10.0 mi West 9.2 mph - N/A   Clear
8:53 AM -11.2 °F -27.8 °F -16.6 °F 77% 30.30 in 10.0 mi West 8.1 mph - N/A   Clear
9:12 AM -9.4 °F -27.9 °F -16.6 °F 71% 30.30 in 10.0 mi West 10.4 mph - N/A   Clear
9:33 AM -9.4 °F -26.8 °F -16.6 °F 71% 30.30 in 10.0 mi West 9.2 mph - N/A   Clear
9:53 AM -7.6 °F -25.7 °F -14.8 °F 71% 30.30 in 10.0 mi West 10.4 mph - N/A   Clear
10:13 AM -5.8 °F -24.4 °F -14.8 °F 65% 30.30 in 10.0 mi West 11.5 mph - N/A   Clear
10:33 AM -5.8 °F -26.8 °F -14.8 °F 65% 30.29 in 10.0 mi West 15.0 mph - N/A   Clear
10:52 AM -4.0 °F -24.5 °F -13.0 °F 65% 30.29 in 10.0 mi West 15.0 mph - N/A   Clear
11:13 AM -2.2 °F -22.2 °F -11.2 °F 66% 30.29 in 10.0 mi West 15.0 mph - N/A   Clear
11:33 AM -2.2 °F -22.9 °F -11.2 °F 66% 30.28 in 10.0 mi West 16.1 mph - N/A   Clear
11:52 AM -2.2 °F -22.2 °F -11.2 °F 66% 30.28 in 10.0 mi West 15.0 mph - N/A   Clear
12:13 PM -0.4 °F -21.2 °F -11.2 °F 60% 30.27 in 10.0 mi West 17.3 mph - N/A   Clear
12:33 PM -0.4 °F -20.5 °F -9.4 °F 66% 30.26 in 10.0 mi West 16.1 mph - N/A   Clear
12:52 PM -0.4 °F -19.9 °F -9.4 °F 66% 30.25 in 10.0 mi West 15.0 mph - N/A   Clear
1:13 PM 1.4 °F -18.8 °F -9.4 °F 61% 30.24 in 10.0 mi West 17.3 mph - N/A   Clear
1:33 PM 1.4 °F -18.8 °F -7.6 °F 66% 30.24 in 10.0 mi West 17.3 mph - N/A   Clear
1:52 PM 1.4 °F -19.9 °F -7.6 °F 66% 30.23 in 10.0 mi West 19.6 mph - N/A   Clear
2:13 PM 1.4 °F -17.6 °F -7.6 °F 66% 30.22 in 10.0 mi West 15.0 mph - N/A   Clear
2:32 PM 1.4 °F -18.8 °F -7.6 °F 66% 30.21 in 10.0 mi West 17.3 mph - N/A   Clear
2:53 PM 3.2 °F -17.1 °F -7.6 °F 61% 30.21 in 10.0 mi West 18.4 mph - N/A   Clear
3:13 PM 3.2 °F -17.1 °F -7.6 °F 61% 30.20 in 10.0 mi West 18.4 mph - N/A   Clear
3:32 PM 3.2 °F -17.6 °F -7.6 °F 61% 30.21 in 10.0 mi West 19.6 mph 24.2 mph N/A   Clear
3:53 PM 3.2 °F -17.1 °F -7.6 °F 61% 30.20 in 10.0 mi West 18.4 mph 21.9 mph N/A   Clear
4:13 PM 3.2 °F -14.6 °F -7.6 °F 61% 30.20 in 10.0 mi West 13.8 mph - N/A   Clear
4:32 PM 3.2 °F -15.3 °F -7.6 °F 61% 30.20 in 10.0 mi West 15.0 mph - N/A   Clear
4:53 PM 3.2 °F -15.3 °F -7.6 °F 61% 30.20 in 10.0 mi West 15.0 mph - N/A   Clear
5:13 PM 1.4 °F -16.1 °F -7.6 °F 66% 30.19 in 10.0 mi West 12.7 mph - N/A   Clear
5:32 PM 1.4 °F -14.5 °F -7.6 °F 66% 30.19 in 10.0 mi West 10.4 mph - N/A   Clear
5:53 PM -0.4 °F -15.7 °F -7.6 °F 72% 30.18 in 10.0 mi West 9.2 mph - N/A   Clear
6:12 PM -0.4 °F -14.7 °F -9.4 °F 66% 30.17 in 10.0 mi WSW 8.1 mph - N/A   Clear
6:32 PM -2.2 °F -15.6 °F -9.4 °F 71% 30.17 in 10.0 mi WSW 6.9 mph - N/A   Clear
6:53 PM -2.2 °F -15.6 °F -9.4 °F 71% 30.16 in 10.0 mi WSW 6.9 mph - N/A   Clear
7:12 PM -2.2 °F -15.6 °F -9.4 °F 71% 30.16 in 10.0 mi WSW 6.9 mph - N/A   Clear
7:33 PM -2.2 °F -14.2 °F -9.4 °F 71% 30.16 in 10.0 mi WSW 5.8 mph - N/A   Clear
7:53 PM -4.0 °F -16.3 °F -9.4 °F 78% 30.16 in 10.0 mi WSW 5.8 mph - N/A   Clear
8:12 PM -2.2 °F -15.6 °F -9.4 °F 71% 30.15 in 10.0 mi WSW 6.9 mph - N/A   Clear
8:33 PM -4.0 °F -14.6 °F -11.2 °F 71% 30.14 in 10.0 mi SW 4.6 mph - N/A   Clear
8:53 PM -4.0 °F -14.6 °F -9.4 °F 78% 30.13 in 10.0 mi SW 4.6 mph - N/A   Clear
9:12 PM -4.0 °F -14.6 °F -9.4 °F 78% 30.13 in 10.0 mi SW 4.6 mph - N/A   Clear
9:33 PM -2.2 °F -15.6 °F -9.4 °F 71% 30.13 in 10.0 mi SW 6.9 mph - N/A   Clear
9:53 PM -2.2 °F -16.8 °F -9.4 °F 71% 30.12 in 10.0 mi SW 8.1 mph - N/A   Clear
10:12 PM -2.2 °F -15.6 °F -9.4 °F 71% 30.11 in 10.0 mi SW 6.9 mph - N/A   Clear
10:33 PM -4.0 °F -14.6 °F -9.4 °F 78% 30.11 in 10.0 mi SW 4.6 mph - N/A   Clear
10:53 PM -4.0 °F -14.6 °F -9.4 °F 78% 30.10 in 10.0 mi SW 4.6 mph - N/A   Clear
11:12 PM -5.8 °F -16.7 °F -11.2 °F 77% 30.10 in 10.0 mi WSW 4.6 mph - N/A   Clear
11:33 PM -4.0 °F -16.3 °F -9.4 °F 78% 30.10 in 10.0 mi SW 5.8 mph - N/A   Clear
11:52 PM -4.0 °F -16.3 °F -11.2 °F 71% 30.09 in 10.0 mi SSW 5.8 mph - N/A   Clear